CDT,Max TemperatureF,Mean TemperatureF,Min TemperatureF,Max Dew PointF,MeanDew PointF,Min DewpointF,Max Humidity, Mean Humidity, Min Humidity, Max Sea Level PressureIn, Mean Sea Level PressureIn, Min Sea Level PressureIn, Max VisibilityMiles, Mean VisibilityMiles, Min VisibilityMiles, Max Wind SpeedMPH, Mean Wind SpeedMPH, Max Gust SpeedMPH,PrecipitationIn, CloudCover, Events, WindDirDegrees
2013-9-1,78,69,60,64,60,57,94,73,47,30.04,29.94,29.83,10,10,2,21,7,26,0.22,,Rain,355
2013-9-2,75,62,48,57,53,48,100,76,41,30.12,30.07,30.04,10,9,2,6,1,,0.00,,,9
2013-9-3,82,65,48,66,57,46,100,77,53,30.10,30.05,30.00,10,10,2,12,3,17,0.00,,,188
2013-9-4,84,72,60,66,62,57,94,72,45,30.13,30.09,30.03,10,10,10,8,3,,0.00,,,185
2013-9-5,80,74,68,66,64,61,83,74,58,30.18,30.14,30.08,10,10,7,12,6,17,0.03,,Rain,175
2013-9-6,87,76,64,70,65,59,88,72,52,30.09,29.98,29.88,10,10,10,20,7,24,0.00,,,182
2013-9-7,82,74,66,73,68,63,94,82,74,29.97,29.91,29.86,10,9,4,8,4,,0.00,,Rain,151
2013-9-8,84,75,66,70,68,64,100,81,62,29.96,29.89,29.80,10,7,1,13,4,17,0.00,,,103
2013-9-9,91,80,69,68,65,63,94,66,40,29.85,29.76,29.71,10,9,4,18,7,23,0.00,,,194
2013-9-10,80,71,62,66,63,57,94,75,45,30.05,29.95,29.86,10,10,5,9,2,,0.00,,,24
2013-9-11,84,70,57,64,59,54,100,72,35,30.12,30.09,30.05,10,9,2,5,0,,0.00,,,327
2013-9-12,77,65,51,61,49,39,94,61,27,30.27,30.21,30.12,10,10,10,13,3,16,0.00,,,20
2013-9-13,73,58,44,50,46,43,93,66,36,30.25,30.18,30.07,10,10,10,8,1,,0.00,,,157
2013-9-14,71,58,44,55,49,43,93,67,46,30.07,29.96,29.84,10,10,10,17,5,22,0.00,,,187
2013-9-15,69,61,53,57,53,48,94,71,53,30.29,30.06,29.82,10,10,10,15,8,23,0.00,,,29
2013-9-16,69,58,46,54,48,45,100,75,43,30.36,30.28,30.19,10,10,7,10,3,17,0.00,,,131
2013-9-17,66,60,55,64,57,50,94,88,77,30.20,30.02,29.86,10,7,2,15,10,18,0.00,,,165
2013-9-18,87,76,66,66,65,64,94,72,46,29.85,29.73,29.66,10,8,5,20,13,30,0.00,,,181
2013-9-19,77,65,53,64,58,46,88,69,41,30.00,29.80,29.65,10,10,10,26,10,38,0.00,,Rain,288
2013-9-20,66,54,39,48,42,36,93,68,32,30.05,30.00,29.96,10,10,7,17,7,25,0.00,,,314
2013-9-21,73,53,33,48,40,32,100,64,29,30.02,29.95,29.86,10,10,7,10,2,,0.00,,,170
2013-9-22,82,68,53,52,48,43,82,56,26,29.86,29.82,29.76,10,10,10,23,10,32,0.00,,,177
2013-9-23,78,66,55,52,47,45,77,54,30,29.83,29.79,29.74,10,10,10,21,11,30,0.00,,,161
2013-9-24,75,64,53,55,52,48,94,68,44,29.93,29.88,29.81,10,10,10,9,4,,0.00,,,83
2013-9-25,78,62,46,57,51,45,100,70,39,29.94,29.85,29.75,10,9,2,17,4,22,0.00,,,152
2013-9-26,87,74,62,57,55,52,82,57,29,29.80,29.76,29.71,10,10,10,26,13,34,0.00,,,166
2013-9-27,84,76,69,59,57,54,68,52,37,29.80,29.76,29.69,10,10,7,29,14,34,0.01,,Rain,173
2013-9-28,73,58,42,57,46,36,94,70,34,30.01,29.86,29.66,10,10,3,21,11,30,0.13,,Rain,286
2013-9-29,80,60,39,43,39,36,93,53,20,30.01,29.90,29.80,10,10,10,22,8,29,0.00,,,202
2013-9-30,82,66,53,46,44,43,72,54,25,29.80,29.73,29.64,10,10,10,20,14,24,0.00,,,200